Home > Weather > Bhadrak > Past weeks

Flag for India Weather for the Past 2 Weeks in Bhadrak, Odisha, India

Now
64 °F

Haze.


Feels Like: 64 °F
Forecast: 65 / 93 °F
Wind: 3 mph from Northeast

Location: Nagpur Sonegaon

Current Time: Feb 9, 2016 at 7:47:37 AM

Latest Report: Feb 9, 2016 at 6:00 AM


Visibility: 2 mi

Pressure: 30.01 "Hg

Humidity: 46%

Dew point: 43 °F

Location of BhadrakLocation

Historic Weather in Bhadrak — Graph

°F

Bhadrak Temperature Yesterday

Maximum temperature yesterday: 90 °F (at 3:00 PM)
Minimum temperature yesterday: 63 °F (at 5:00 AM)
Average temperature yesterday: 77 °F

High & Low Weather Summary for the Past Weeks

 TemperatureHumidityPressure
High97 °F (Jan 31, 3:30 PM)100% (Feb 3, 7:30 AM)30.15 "Hg (Feb 3, 7:30 AM)
Low50 °F (Jan 25, 6:30 AM)17% (Feb 8, 3:00 PM)29.86 "Hg (Feb 6, 3:00 PM)
Average76 °F43%29.99 "Hg
* Reported Jan 25 6:00 AM — Feb 9 6:00 AM, Bhadrak, Weather by CustomWeather, © 2016

Note: Actual official high and low records may vary slightly from our data, if they occured in-between our weather recording intervals... More about our weather records

Advertising

Bhadrak Weather History for the Previous 24 Hours

 ConditionsComfort  
Time TempWeatherWind HumidityBarometerVisibility
6:00 AM
Tue, Feb 9
64 °FHaze.3 mph46%30.01 "Hg2 mi
4:30 AM66 °FHaze.5 mph43%29.98 "Hg2 mi
4:00 AM68 °FHaze.5 mph40%29.98 "Hg2 mi
3:30 AM68 °FHaze.6 mph40%29.98 "Hg2 mi
3:00 AM68 °FHaze.3 mph40%29.98 "Hg2 mi
2:30 AM68 °FHaze.3 mph40%29.98 "Hg2 mi
1:30 AM70 °FHaze.N/A40%30.01 "Hg2 mi
1:00 AM68 °FHaze.2 mph43%30.01 "Hg2 mi
12:30 AM70 °FHaze.2 mph40%30.01 "Hg2 mi
12:00 AM72 °FHaze.2 mph38%30.01 "Hg2 mi
11:30 PM
Mon, Feb 8
72 °FHaze.2 mph38%30.01 "Hg2 mi
11:00 PM73 °FHaze.2 mph36%30.01 "Hg2 mi
10:30 PM75 °FHaze.6 mph36%30.01 "Hg2 mi
9:30 PM75 °FHaze.3 mph39%30.01 "Hg2 mi
9:00 PM75 °FHaze.3 mph39%30.01 "Hg2 mi
8:30 PM77 °FHaze.3 mph36%29.98 "Hg2 mi
8:00 PM75 °FHaze.No wind34%29.98 "Hg2 mi
7:00 PM79 °FHaze.No wind30%29.95 "Hg2 mi
6:30 PM81 °FHaze.No wind28%29.95 "Hg2 mi
6:00 PM84 °FHaze.No wind25%29.92 "Hg3 mi
5:30 PM88 °FHaze.No wind24%29.92 "Hg3 mi
5:00 PM88 °FHaze.5 mph21%29.92 "Hg3 mi
4:30 PM90 °FHaze.5 mph21%29.92 "Hg3 mi
4:00 PM90 °FHaze.5 mph21%29.92 "Hg3 mi
3:30 PM88 °FHaze.8 mph21%29.92 "Hg3 mi
3:00 PM90 °FHaze.5 mph17%29.95 "Hg3 mi
2:30 PM88 °FHaze.5 mph21%29.95 "Hg3 mi
2:00 PM88 °FHaze.6 mph21%29.98 "Hg3 mi
1:00 PM84 °FHaze.6 mph23%30.01 "Hg3 mi
12:30 PM84 °FHaze.6 mph23%30.01 "Hg3 mi
12:00 PM84 °FHaze.7 mph23%30.04 "Hg2 mi
11:30 AM82 °FHaze.6 mph25%30.07 "Hg2 mi
11:00 AM81 °FHaze.6 mph26%30.07 "Hg2 mi
10:00 AM77 °FHaze.7 mph30%30.09 "Hg2 mi
9:00 AM73 °FHaze.7 mph33%30.07 "Hg2 mi
8:30 AM72 °FHaze.6 mph38%30.07 "Hg2 mi
8:00 AM70 °FHaze.5 mph40%30.04 "Hg2 mi
7:30 AM68 °FHaze.3 mph43%30.04 "Hg2 mi
7:00 AM66 °FHaze.2 mph52%30.01 "Hg2 mi
Weather by CustomWeather, © 2016

See weather overviewHow to use our weather pages